Location: Navalespino
(40.5894°N, 4.2660°W)
Time: 10:04:04
(UTC+00:00)

Hubble Space Telescope - Pass Details

Date: 18 April 2024
Orbit: 512 x 515 km, 28.5° (Epoch: 19 May)

Event Time Altitude Azimuth Distance (km) Brightness Sun altitude
Rises 19:22:54 0° 245° (WSW) 2,604 5.0 -5.0°
Reaches altitude 10° 19:26:39 10° 209° (SSW) 1,717 3.5 -5.7°
Maximum altitude 19:27:49 11° 191° (SSW) 1,647 3.2 -5.9°
Drops below altitude 10° 19:28:59 10° 174° (S) 1,716 3.1 -6.1°
Enters shadow 19:31:37 - 146° (SE) 2,266 3.5 -6.5°
